Location: Praha
(50.0830°N, 14.4670°E)
Time: 02:37:38
(UTC+02:00)

ISS - Pass Details

Date: 12 May 2024
Orbit: 409 x 414 km, 51.6° (Epoch: 23 May)

Event Time Altitude Azimuth Distance (km) Brightness Sun altitude
Rises 02:00:20 0° 285° (WNW) 2,348 0.1 -20.4°
Enters shadow 02:01:47 - 285° (WNW) 1,750 -0.6 -20.3°
Exits shadow 02:09:12 - 109° (ESE) 1,527 -0.9 -19.9°
Sets 02:11:09 0° 109° (ESE) 2,334 0.0 -19.8°
